軌道要素
Epoch 2025 May 5.0 TT = JDT 2460800.5
T 2025 Mar. 10.39618 TT Payne
q 3.4324132 (2000.0) P Q
z -0.0108344 Peri. 290.51457 -0.86072801 -0.48590572
+/-0.0000014 Node 139.17671 -0.33578279 +0.76603723
e 1.0371882 Incl. 166.57308 -0.38261888 +0.42081182
From 726 observations 2024 June 14-2025 Apr. 30, mean residual 0".6.
|